Location: Staunton
(38.1490°N, 79.0720°W)
Time: 13:59:23
(UTC-04:00)

ISS - Pass Details

Date: 14 July 2019
Orbit: 409 x 418 km, 51.6° (Epoch: 20 July)

Event Time Altitude Azimuth Distance (km) Brightness Sun altitude
Exits shadow 01:47:30 10° 329° (NNW) 1,495 -0.4 -29.8°
Reaches altitude 10° 01:47:38 10° 331° (NNW) 1,481 -0.4 -29.8°
Maximum altitude 01:48:28 11° 345° (NNW) 1,439 -0.3 -29.8°
Drops below altitude 10° 01:49:19 10° 0° (N) 1,481 -0.1 -29.8°
Sets 01:52:54 0° 41° (NE) 2,342 0.8 -29.7°
